Location: Tucson
(32.2217°N, 110.9265°W)
Time: 18:33:17
(UTC-07:00)

Envisat - Visible Passes

Search period start: 17 January 2019 00:00
Search period end: 27 January 2019 00:00
Orbit: 764 x 766 km, 98.2° (Epoch: 17 January)

Date Brightness Start Highest point End Pass type
(mag) Time Alt. Az. Time Alt. Az. Time Alt. Az.
17 Jan 6.1 06:45:01 10° ENE 06:47:43 14° E 06:50:25 10° SE visible
17 Jan 3.4 19:31:32 10° S 19:36:32 62° W 19:41:34 10° NNW visible
18 Jan 3.0 18:54:57 10° SSE 18:59:52 54° ENE 19:04:48 10° N visible
18 Jan 5.9 20:36:46 10° WSW 20:39:07 13° W 20:41:30 10° WNW visible
19 Jan 4.1 18:19:28 10° ESE 18:23:22 23° ENE 18:27:16 10° NNE visible
19 Jan 4.6 19:57:37 10° SSW 20:02:08 33° W 20:06:41 10° NW visible
20 Jan 6.6 06:35:22 10° E 06:36:24 11° E 06:37:27 10° ESE visible
20 Jan 3.0 19:20:16 10° S 19:25:20 81° WSW 19:30:26 10° NNW visible
21 Jan 3.3 18:43:59 10° SE 18:48:42 41° ENE 18:53:27 10° N visible
21 Jan 5.6 20:24:30 10° SW 20:27:50 17° W 20:31:10 10° NW visible
22 Jan 4.3 18:08:57 10° ESE 18:12:16 18° ENE 18:15:36 10° NNE visible
22 Jan 4.2 19:46:07 10° S 19:50:54 42° W 19:55:43 10° NNW visible
23 Jan 2.9 19:09:06 10° SSE 19:14:09 78° ENE 19:19:14 10° N visible
24 Jan 3.6 18:33:08 10° SE 18:37:34 32° ENE 18:42:02 10° N visible
24 Jan 5.3 20:12:36 10° SSW 20:16:34 23° W 20:20:31 10° NW visible
25 Jan 6.1 06:47:48 10° NE 06:50:53 16° E 06:53:57 10° SE visible
25 Jan 3.6 19:34:43 10° S 19:39:41 56° W 19:44:40 10° NNW visible
26 Jan 3.0 18:58:00 10° SSE 19:02:58 60° ENE 19:07:58 10° N visible
26 Jan 6.1 20:40:31 10° WSW 20:42:17 12° W 20:44:04 10° WNW visible
